Year,Month,Day,Hour,Minute,Value (Times are PST for temperature in C)
2017,07,11,00,00,12.30
2017,07,11,00,01,12.30
2017,07,11,00,02,12.30
2017,07,11,00,03,12.30
2017,07,11,00,04,12.30
2017,07,11,00,05,12.30
2017,07,11,00,06,12.30
2017,07,11,00,07,12.30
2017,07,11,00,08,12.30
2017,07,11,00,09,12.30
2017,07,11,00,10,12.30
2017,07,11,00,11,12.30
2017,07,11,00,12,12.30
2017,07,11,00,13,12.30
2017,07,11,00,14,12.30
2017,07,11,00,15,12.30
2017,07,11,00,16,12.30
2017,07,11,00,17,12.30
2017,07,11,00,18,12.30
2017,07,11,00,19,12.30
2017,07,11,00,20,12.40
2017,07,11,00,21,12.40
2017,07,11,00,22,12.40
2017,07,11,00,23,12.40
2017,07,11,00,24,12.40
2017,07,11,00,25,12.40
2017,07,11,00,26,12.30
2017,07,11,00,27,12.30
2017,07,11,00,28,12.30
2017,07,11,00,29,12.30
2017,07,11,00,30,12.20
2017,07,11,00,31,12.20
2017,07,11,00,32,12.20
2017,07,11,00,33,12.20
2017,07,11,00,34,12.20
2017,07,11,00,35,12.10
2017,07,11,00,36,12.10
2017,07,11,00,37,12.10
2017,07,11,00,38,12.10
2017,07,11,00,39,12.10
2017,07,11,00,40,12.00
2017,07,11,00,41,12.00
2017,07,11,00,42,12.00
2017,07,11,00,43,12.00
2017,07,11,00,44,12.00
2017,07,11,00,45,12.00
2017,07,11,00,46,12.00
2017,07,11,00,47,12.00
2017,07,11,00,48,11.90
2017,07,11,00,49,11.90
2017,07,11,00,50,11.90
2017,07,11,00,51,11.90
2017,07,11,00,52,11.90
2017,07,11,00,53,11.90
2017,07,11,00,54,11.90
2017,07,11,00,55,11.90
2017,07,11,00,56,11.90
2017,07,11,00,57,11.90
2017,07,11,00,58,11.90
2017,07,11,00,59,11.90
2017,07,11,01,00,11.90
2017,07,11,01,01,11.90
2017,07,11,01,02,11.90
2017,07,11,01,03,11.90
2017,07,11,01,04,11.90
2017,07,11,01,05,11.90
2017,07,11,01,06,11.80
2017,07,11,01,07,11.80
2017,07,11,01,08,11.80
2017,07,11,01,09,11.80
2017,07,11,01,10,11.80
2017,07,11,01,11,11.80
2017,07,11,01,12,11.80
2017,07,11,01,13,11.80
2017,07,11,01,14,11.80
2017,07,11,01,15,11.80
2017,07,11,01,16,11.80
2017,07,11,01,17,11.80
2017,07,11,01,18,11.80
2017,07,11,01,19,11.80
2017,07,11,01,20,11.80
2017,07,11,01,21,11.70
2017,07,11,01,22,11.70
2017,07,11,01,23,11.70
2017,07,11,01,24,11.70
2017,07,11,01,25,11.70
2017,07,11,01,26,11.70
2017,07,11,01,27,11.70
2017,07,11,01,28,11.70
2017,07,11,01,29,11.70
2017,07,11,01,30,11.60
2017,07,11,01,31,11.60
2017,07,11,01,32,11.60
2017,07,11,01,33,11.60
2017,07,11,01,34,11.50
2017,07,11,01,35,11.50
2017,07,11,01,36,11.50
2017,07,11,01,37,11.40
2017,07,11,01,38,11.40
2017,07,11,01,39,11.40
2017,07,11,01,40,11.40
2017,07,11,01,41,11.40
2017,07,11,01,42,11.30
2017,07,11,01,43,11.30
2017,07,11,01,44,11.30
2017,07,11,01,45,11.30
2017,07,11,01,46,11.30
2017,07,11,01,47,11.30
2017,07,11,01,48,11.30
2017,07,11,01,49,11.30
2017,07,11,01,50,11.20
2017,07,11,01,51,11.20
2017,07,11,01,52,11.20
2017,07,11,01,53,11.20
2017,07,11,01,54,11.20
2017,07,11,01,55,11.20
2017,07,11,01,56,11.20
2017,07,11,01,57,11.20
2017,07,11,01,58,11.10
2017,07,11,01,59,11.10
2017,07,11,02,00,11.10
2017,07,11,02,01,11.10
2017,07,11,02,02,11.10
2017,07,11,02,03,11.00
2017,07,11,02,04,11.00
2017,07,11,02,05,11.00
2017,07,11,02,06,11.00
2017,07,11,02,07,11.00
2017,07,11,02,08,10.90
2017,07,11,02,09,10.90
2017,07,11,02,10,10.90
2017,07,11,02,11,10.90
2017,07,11,02,12,10.90
2017,07,11,02,13,10.90
2017,07,11,02,14,10.90
2017,07,11,02,15,10.90
2017,07,11,02,16,10.90
2017,07,11,02,17,10.90
2017,07,11,02,18,10.90
2017,07,11,02,19,10.90
2017,07,11,02,20,10.90
2017,07,11,02,21,10.90
2017,07,11,02,22,10.90
2017,07,11,02,23,10.90
2017,07,11,02,24,10.90
2017,07,11,02,25,10.90
2017,07,11,02,26,10.90
2017,07,11,02,27,10.90
2017,07,11,02,28,10.90
2017,07,11,02,29,10.90
2017,07,11,02,30,10.90
2017,07,11,02,31,10.90
2017,07,11,02,32,10.90
2017,07,11,02,33,10.90
2017,07,11,02,34,10.90
2017,07,11,02,35,10.90
2017,07,11,02,36,10.90
2017,07,11,02,37,10.90
2017,07,11,02,38,10.80
2017,07,11,02,39,10.80
2017,07,11,02,40,10.80
2017,07,11,02,41,10.80
2017,07,11,02,42,10.80
2017,07,11,02,43,10.80
2017,07,11,02,44,10.80
2017,07,11,02,45,10.80
2017,07,11,02,46,10.80
2017,07,11,02,47,10.80
2017,07,11,02,48,10.80
2017,07,11,02,49,10.80
2017,07,11,02,50,10.80
2017,07,11,02,51,10.80
2017,07,11,02,52,10.80
2017,07,11,02,53,10.70
2017,07,11,02,54,10.70
2017,07,11,02,55,10.70
2017,07,11,02,56,10.70
2017,07,11,02,57,10.70
2017,07,11,02,58,10.70
2017,07,11,02,59,10.70
2017,07,11,03,00,10.70
2017,07,11,03,01,10.70
2017,07,11,03,02,10.70
2017,07,11,03,03,10.70
2017,07,11,03,04,10.70
2017,07,11,03,05,10.80
2017,07,11,03,06,10.80
2017,07,11,03,07,10.80
2017,07,11,03,08,10.90
2017,07,11,03,09,10.90
2017,07,11,03,10,10.90
2017,07,11,03,11,11.00
2017,07,11,03,12,11.00
2017,07,11,03,13,11.10
2017,07,11,03,14,11.20
2017,07,11,03,15,11.30
2017,07,11,03,16,11.40
2017,07,11,03,17,11.40
2017,07,11,03,18,11.50
2017,07,11,03,19,11.60
2017,07,11,03,20,11.70
2017,07,11,03,21,11.80
2017,07,11,03,22,11.80
2017,07,11,03,23,11.90
2017,07,11,03,24,11.90
2017,07,11,03,25,12.00
2017,07,11,03,26,12.10
2017,07,11,03,27,12.10
2017,07,11,03,28,12.20
2017,07,11,03,29,12.20
2017,07,11,03,30,12.20
2017,07,11,03,31,12.30
2017,07,11,03,32,12.30
2017,07,11,03,33,12.30
2017,07,11,03,34,12.40
2017,07,11,03,35,12.40
2017,07,11,03,36,12.50
2017,07,11,03,37,12.60
2017,07,11,03,38,12.60
2017,07,11,03,39,12.70
2017,07,11,03,40,12.70
2017,07,11,03,41,12.80
2017,07,11,03,42,12.80
2017,07,11,03,43,12.90
2017,07,11,03,44,12.90
2017,07,11,03,45,13.00
2017,07,11,03,46,13.00
2017,07,11,03,47,13.00
2017,07,11,03,48,13.10
2017,07,11,03,49,13.10
2017,07,11,03,50,13.20
2017,07,11,03,51,13.20
2017,07,11,03,52,13.20
2017,07,11,03,53,13.30
2017,07,11,03,54,13.30
2017,07,11,03,55,13.30
2017,07,11,03,56,13.30
2017,07,11,03,57,13.40
2017,07,11,03,58,13.40
2017,07,11,03,59,13.40
2017,07,11,04,00,13.40
2017,07,11,04,01,13.50
2017,07,11,04,02,13.50
2017,07,11,04,03,13.50
2017,07,11,04,04,13.60
2017,07,11,04,05,13.60
2017,07,11,04,06,13.60
2017,07,11,04,07,13.60
2017,07,11,04,08,13.60
2017,07,11,04,09,13.70
2017,07,11,04,10,13.70
2017,07,11,04,11,13.70
2017,07,11,04,12,13.70
2017,07,11,04,13,13.70
2017,07,11,04,14,13.70
2017,07,11,04,15,13.70
2017,07,11,04,16,13.70
2017,07,11,04,17,13.60
2017,07,11,04,18,13.60
2017,07,11,04,19,13.60
2017,07,11,04,20,13.60
2017,07,11,04,21,13.60
2017,07,11,04,22,13.60
2017,07,11,04,23,13.60
2017,07,11,04,24,13.60
2017,07,11,04,25,13.60
2017,07,11,04,26,13.60
2017,07,11,04,27,13.60
2017,07,11,04,28,13.60
2017,07,11,04,29,13.60
2017,07,11,04,30,13.60
2017,07,11,04,31,13.60
2017,07,11,04,32,13.70
2017,07,11,04,33,13.70
2017,07,11,04,34,13.70
2017,07,11,04,35,13.70
2017,07,11,04,36,13.70
2017,07,11,04,37,13.70
2017,07,11,04,38,13.70
2017,07,11,04,39,13.70
2017,07,11,04,40,13.70
2017,07,11,04,41,13.70
2017,07,11,04,42,13.80
2017,07,11,04,43,13.80
2017,07,11,04,44,13.80
2017,07,11,04,45,13.80
2017,07,11,04,46,13.80
2017,07,11,04,47,13.80
2017,07,11,04,48,13.80
2017,07,11,04,49,13.70
2017,07,11,04,50,13.70
2017,07,11,04,51,13.70
2017,07,11,04,52,13.70
2017,07,11,04,53,13.70
2017,07,11,04,54,13.60
2017,07,11,04,55,13.60
2017,07,11,04,56,13.50
2017,07,11,04,57,13.50
2017,07,11,04,58,13.40
2017,07,11,04,59,13.30
2017,07,11,05,00,13.30
2017,07,11,05,01,13.20
2017,07,11,05,02,13.10
2017,07,11,05,03,13.00
2017,07,11,05,04,13.00
2017,07,11,05,05,12.90
2017,07,11,05,06,12.80
2017,07,11,05,07,12.70
2017,07,11,05,08,12.70
2017,07,11,05,09,12.60
2017,07,11,05,10,12.50
2017,07,11,05,11,12.40
2017,07,11,05,12,12.40
2017,07,11,05,13,12.40
2017,07,11,05,14,12.40
2017,07,11,05,15,12.40
2017,07,11,05,16,12.40
2017,07,11,05,17,12.40
2017,07,11,05,18,12.30
2017,07,11,05,19,12.30
2017,07,11,05,20,12.30
2017,07,11,05,21,12.30
2017,07,11,05,22,12.30
2017,07,11,05,23,12.30
2017,07,11,05,24,12.30
2017,07,11,05,25,12.30
2017,07,11,05,26,12.30
2017,07,11,05,27,12.30
2017,07,11,05,28,12.30
2017,07,11,05,29,12.20
2017,07,11,05,30,12.20
2017,07,11,05,31,12.20
2017,07,11,05,32,12.10
2017,07,11,05,33,12.10
2017,07,11,05,34,12.00
2017,07,11,05,35,12.00
2017,07,11,05,36,11.90
2017,07,11,05,37,11.90
2017,07,11,05,38,11.80
2017,07,11,05,39,11.80
2017,07,11,05,40,11.80
2017,07,11,05,41,11.80
2017,07,11,05,42,11.70
2017,07,11,05,43,11.70
2017,07,11,05,44,11.70
2017,07,11,05,45,11.70
2017,07,11,05,46,11.70
2017,07,11,05,47,11.60
2017,07,11,05,48,11.60
2017,07,11,05,49,11.60
2017,07,11,05,50,11.60
2017,07,11,05,51,11.60
2017,07,11,05,52,11.60
2017,07,11,05,53,11.60
2017,07,11,05,54,11.50
2017,07,11,05,55,11.50
2017,07,11,05,56,11.50
2017,07,11,05,57,11.50
2017,07,11,05,58,11.40
2017,07,11,05,59,11.40
2017,07,11,06,00,11.40
2017,07,11,06,01,11.40
2017,07,11,06,02,11.40
2017,07,11,06,03,11.40
2017,07,11,06,04,11.40
2017,07,11,06,05,11.30
2017,07,11,06,06,11.30
2017,07,11,06,07,11.30
2017,07,11,06,08,11.30
2017,07,11,06,09,11.30
2017,07,11,06,10,11.30
2017,07,11,06,11,11.30
2017,07,11,06,12,11.30
2017,07,11,06,13,11.30
2017,07,11,06,14,11.30
2017,07,11,06,15,11.40
2017,07,11,06,16,11.40
2017,07,11,06,17,11.40
2017,07,11,06,18,11.40
2017,07,11,06,19,11.40
2017,07,11,06,20,11.50
2017,07,11,06,21,11.50
2017,07,11,06,22,11.50
2017,07,11,06,23,11.60
2017,07,11,06,24,11.60
2017,07,11,06,25,11.60
2017,07,11,06,26,11.60
2017,07,11,06,27,11.60
2017,07,11,06,28,11.70
2017,07,11,06,29,11.70
2017,07,11,06,30,11.80
2017,07,11,06,31,11.80
2017,07,11,06,32,11.80
2017,07,11,06,33,11.80
2017,07,11,06,34,11.90
2017,07,11,06,35,11.90
2017,07,11,06,36,11.90
2017,07,11,06,37,12.00
2017,07,11,06,38,12.00
2017,07,11,06,39,12.10
2017,07,11,06,40,12.10
2017,07,11,06,41,12.10
2017,07,11,06,42,12.20
2017,07,11,06,43,12.20
2017,07,11,06,44,12.30
2017,07,11,06,45,12.30
2017,07,11,06,46,12.30
2017,07,11,06,47,12.40
2017,07,11,06,48,12.50
2017,07,11,06,49,12.50
2017,07,11,06,50,12.60
2017,07,11,06,51,12.70
2017,07,11,06,52,12.70
2017,07,11,06,53,12.70
2017,07,11,06,54,12.80
2017,07,11,06,55,12.80
2017,07,11,06,56,12.90
2017,07,11,06,57,13.00
2017,07,11,06,58,13.10
2017,07,11,06,59,13.20
2017,07,11,07,00,13.20
2017,07,11,07,01,13.30
2017,07,11,07,02,13.50
2017,07,11,07,03,13.60
2017,07,11,07,04,13.70
2017,07,11,07,05,13.80
2017,07,11,07,06,13.80
2017,07,11,07,07,13.90
2017,07,11,07,08,13.90
2017,07,11,07,09,14.00
2017,07,11,07,10,14.10
2017,07,11,07,11,14.20
2017,07,11,07,12,14.20
2017,07,11,07,13,14.30
2017,07,11,07,14,14.40
2017,07,11,07,15,14.40
2017,07,11,07,16,14.50
2017,07,11,07,17,14.60
2017,07,11,07,18,14.70
2017,07,11,07,19,14.80
2017,07,11,07,20,14.80
2017,07,11,07,21,14.90
2017,07,11,07,22,14.90
2017,07,11,07,23,15.00
2017,07,11,07,24,15.10
2017,07,11,07,25,15.10
2017,07,11,07,26,15.20
2017,07,11,07,27,15.20
2017,07,11,07,28,15.20
2017,07,11,07,29,15.30
2017,07,11,07,30,15.40
2017,07,11,07,31,15.40
2017,07,11,07,32,15.50
2017,07,11,07,33,15.50
2017,07,11,07,34,15.60
2017,07,11,07,35,15.60
2017,07,11,07,36,15.70
2017,07,11,07,37,15.70
2017,07,11,07,38,15.70
2017,07,11,07,39,15.70
2017,07,11,07,40,15.80
2017,07,11,07,41,15.80
2017,07,11,07,42,15.80
2017,07,11,07,43,15.80
2017,07,11,07,44,15.80
2017,07,11,07,45,15.90
2017,07,11,07,46,15.90
2017,07,11,07,47,15.90
2017,07,11,07,48,15.90
2017,07,11,07,49,16.00
2017,07,11,07,50,16.00
2017,07,11,07,51,16.10
2017,07,11,07,52,16.20
2017,07,11,07,53,16.20
2017,07,11,07,54,16.30
2017,07,11,07,55,16.40
2017,07,11,07,56,16.40
2017,07,11,07,57,16.40
2017,07,11,07,58,16.50
2017,07,11,07,59,16.50
2017,07,11,08,00,16.60
2017,07,11,08,01,16.60
2017,07,11,08,02,16.60
2017,07,11,08,03,16.60
2017,07,11,08,04,16.50
2017,07,11,08,05,16.50
2017,07,11,08,06,16.60
2017,07,11,08,07,16.60
2017,07,11,08,08,16.60
2017,07,11,08,09,16.60
2017,07,11,08,10,16.60
2017,07,11,08,11,16.70
2017,07,11,08,12,16.70
2017,07,11,08,13,16.80
2017,07,11,08,14,16.80
2017,07,11,08,15,16.80
2017,07,11,08,16,16.90
2017,07,11,08,17,16.90
2017,07,11,08,18,16.90
2017,07,11,08,19,16.90
2017,07,11,08,20,16.90
2017,07,11,08,21,16.90
2017,07,11,08,22,16.90
2017,07,11,08,23,16.90
2017,07,11,08,24,16.90
2017,07,11,08,25,16.90
2017,07,11,08,26,16.90
2017,07,11,08,27,16.90
2017,07,11,08,28,16.90
2017,07,11,08,29,16.90
2017,07,11,08,30,16.90
2017,07,11,08,31,16.90
2017,07,11,08,32,16.90
2017,07,11,08,33,16.90
2017,07,11,08,34,16.90
2017,07,11,08,35,17.00
2017,07,11,08,36,17.00
2017,07,11,08,37,17.10
2017,07,11,08,38,17.20
2017,07,11,08,39,17.20
2017,07,11,08,40,17.20
2017,07,11,08,41,17.30
2017,07,11,08,42,17.30
2017,07,11,08,43,17.40
2017,07,11,08,44,17.40
2017,07,11,08,45,17.50
2017,07,11,08,46,17.50
2017,07,11,08,47,17.50
2017,07,11,08,48,17.40
2017,07,11,08,49,17.40
2017,07,11,08,50,17.40
2017,07,11,08,51,17.40
2017,07,11,08,52,17.40
2017,07,11,08,53,17.40
2017,07,11,08,54,17.40
2017,07,11,08,55,17.40
2017,07,11,08,56,17.50
2017,07,11,08,57,17.50
2017,07,11,08,58,17.50
2017,07,11,08,59,17.60
2017,07,11,09,00,17.60
2017,07,11,09,01,17.70
2017,07,11,09,02,17.80
2017,07,11,09,03,17.80
2017,07,11,09,04,17.90
2017,07,11,09,05,17.90
2017,07,11,09,06,17.90
2017,07,11,09,07,17.90
2017,07,11,09,08,17.90
2017,07,11,09,09,18.00
2017,07,11,09,10,18.10
2017,07,11,09,11,18.20
2017,07,11,09,12,18.30
2017,07,11,09,13,18.30
2017,07,11,09,14,18.30
2017,07,11,09,15,18.30
2017,07,11,09,16,18.20
2017,07,11,09,17,18.20
2017,07,11,09,18,18.10
2017,07,11,09,19,18.10
2017,07,11,09,20,18.10
2017,07,11,09,21,18.20
2017,07,11,09,22,18.20
2017,07,11,09,23,18.20
2017,07,11,09,24,18.20
2017,07,11,09,25,18.20
2017,07,11,09,26,18.20
2017,07,11,09,27,18.10
2017,07,11,09,28,18.10
2017,07,11,09,29,18.10
2017,07,11,09,30,18.00
2017,07,11,09,31,18.00
2017,07,11,09,32,18.00
2017,07,11,09,33,18.00
2017,07,11,09,34,18.00
2017,07,11,09,35,18.00
2017,07,11,09,36,18.00
2017,07,11,09,37,18.10
2017,07,11,09,38,18.10
2017,07,11,09,39,18.20
2017,07,11,09,40,18.20
2017,07,11,09,41,18.10
2017,07,11,09,42,18.10
2017,07,11,09,43,18.10
2017,07,11,09,44,18.10
2017,07,11,09,45,18.10
2017,07,11,09,46,18.10
2017,07,11,09,47,18.10
2017,07,11,09,48,18.20
2017,07,11,09,49,18.30
2017,07,11,09,50,18.40
2017,07,11,09,51,18.40
2017,07,11,09,52,18.50
2017,07,11,09,53,18.60
2017,07,11,09,54,18.60
2017,07,11,09,55,18.60
2017,07,11,09,56,18.70
2017,07,11,09,57,18.70
2017,07,11,09,58,18.70
2017,07,11,09,59,18.80
2017,07,11,10,00,18.80
2017,07,11,10,01,18.80
2017,07,11,10,02,18.80
2017,07,11,10,03,18.80
2017,07,11,10,04,18.70
2017,07,11,10,05,18.80
2017,07,11,10,06,18.80
2017,07,11,10,07,18.80
2017,07,11,10,08,18.80
2017,07,11,10,09,18.80
2017,07,11,10,10,18.90
2017,07,11,10,11,19.00
2017,07,11,10,12,19.00
2017,07,11,10,13,18.90
2017,07,11,10,14,18.90
2017,07,11,10,15,18.90
2017,07,11,10,16,18.90
2017,07,11,10,17,18.90
2017,07,11,10,18,18.90
2017,07,11,10,19,19.00
2017,07,11,10,20,19.10
2017,07,11,10,21,19.10
2017,07,11,10,22,19.20
2017,07,11,10,23,19.20
2017,07,11,10,24,19.20
2017,07,11,10,25,19.20
2017,07,11,10,26,19.10
2017,07,11,10,27,19.00
2017,07,11,10,28,18.90
2017,07,11,10,29,18.80
2017,07,11,10,30,18.80
2017,07,11,10,31,18.80
2017,07,11,10,32,18.80
2017,07,11,10,33,18.80
2017,07,11,10,34,18.80
2017,07,11,10,35,18.70
2017,07,11,10,36,18.80
2017,07,11,10,37,18.80
2017,07,11,10,38,18.80
2017,07,11,10,39,18.80
2017,07,11,10,40,18.70
2017,07,11,10,41,18.70
2017,07,11,10,42,18.70
2017,07,11,10,43,18.70
2017,07,11,10,44,18.70
2017,07,11,10,45,18.70
2017,07,11,10,46,18.70
2017,07,11,10,47,18.80
2017,07,11,10,48,18.80
2017,07,11,10,49,18.80
2017,07,11,10,50,18.80
2017,07,11,10,51,18.80
2017,07,11,10,52,18.80
2017,07,11,10,53,18.80
2017,07,11,10,54,18.80
2017,07,11,10,55,18.80
2017,07,11,10,56,18.80
2017,07,11,10,57,18.80
2017,07,11,10,58,18.70
2017,07,11,10,59,18.80
2017,07,11,11,00,18.80
2017,07,11,11,01,18.70
2017,07,11,11,02,18.70
2017,07,11,11,03,18.70
2017,07,11,11,04,18.70
2017,07,11,11,05,18.70
2017,07,11,11,06,18.70
2017,07,11,11,07,18.70
2017,07,11,11,08,18.70
2017,07,11,11,09,18.60
2017,07,11,11,10,18.60
2017,07,11,11,11,18.50
2017,07,11,11,12,18.40
2017,07,11,11,13,18.40
2017,07,11,11,14,18.40
2017,07,11,11,15,18.40
2017,07,11,11,16,18.50
2017,07,11,11,17,18.50
2017,07,11,11,18,18.60
2017,07,11,11,19,18.60
2017,07,11,11,20,18.70
2017,07,11,11,21,18.70
2017,07,11,11,22,18.70
2017,07,11,11,23,18.70
2017,07,11,11,24,18.70
2017,07,11,11,25,18.70
2017,07,11,11,26,18.70
2017,07,11,11,27,18.70
2017,07,11,11,28,18.80
2017,07,11,11,29,18.80
2017,07,11,11,30,18.80
2017,07,11,11,31,18.80
2017,07,11,11,32,18.80
2017,07,11,11,33,18.80
2017,07,11,11,34,18.80
2017,07,11,11,35,18.90
2017,07,11,11,36,18.90
2017,07,11,11,37,18.90
2017,07,11,11,38,18.90
2017,07,11,11,39,18.90
2017,07,11,11,40,19.00
2017,07,11,11,41,19.00
2017,07,11,11,42,18.90
2017,07,11,11,43,18.80
2017,07,11,11,44,18.80
2017,07,11,11,45,18.90
2017,07,11,11,46,18.90
2017,07,11,11,47,19.00
2017,07,11,11,48,19.10
2017,07,11,11,49,19.10
2017,07,11,11,50,19.20
2017,07,11,11,51,19.20
2017,07,11,11,52,19.30
2017,07,11,11,53,19.30
2017,07,11,11,54,19.20
2017,07,11,11,55,19.20
2017,07,11,11,56,19.20
2017,07,11,11,57,19.30
2017,07,11,11,58,19.30
2017,07,11,11,59,19.30
2017,07,11,12,00,19.40
2017,07,11,12,01,19.40
2017,07,11,12,02,19.50
2017,07,11,12,03,19.50
2017,07,11,12,04,19.50
2017,07,11,12,05,19.40
2017,07,11,12,06,19.50
2017,07,11,12,07,19.60
2017,07,11,12,08,19.60
2017,07,11,12,09,19.70
2017,07,11,12,10,19.70
2017,07,11,12,11,19.80
2017,07,11,12,12,19.80
2017,07,11,12,13,19.70
2017,07,11,12,14,19.70
2017,07,11,12,15,19.70
2017,07,11,12,16,19.70
2017,07,11,12,17,19.60
2017,07,11,12,18,19.60
2017,07,11,12,19,19.60
2017,07,11,12,20,19.60
2017,07,11,12,21,19.50
2017,07,11,12,22,19.50
2017,07,11,12,23,19.50
2017,07,11,12,24,19.50
2017,07,11,12,25,19.60
2017,07,11,12,26,19.70
2017,07,11,12,27,19.80
2017,07,11,12,28,19.80
2017,07,11,12,29,19.90
2017,07,11,12,30,19.90
2017,07,11,12,31,19.90
2017,07,11,12,32,19.90
2017,07,11,12,33,19.90
2017,07,11,12,34,20.00
2017,07,11,12,35,20.10
2017,07,11,12,36,20.10
2017,07,11,12,37,20.10
2017,07,11,12,38,20.20
2017,07,11,12,39,20.30
2017,07,11,12,40,20.30
2017,07,11,12,41,20.40
2017,07,11,12,42,20.40
2017,07,11,12,43,20.50
2017,07,11,12,44,20.60
2017,07,11,12,45,20.70
2017,07,11,12,46,20.70
2017,07,11,12,47,20.70
2017,07,11,12,48,20.70
2017,07,11,12,49,20.70
2017,07,11,12,50,20.70
2017,07,11,12,51,20.80
2017,07,11,12,52,20.70
2017,07,11,12,53,20.70
2017,07,11,12,54,20.70
2017,07,11,12,55,20.60
2017,07,11,12,56,20.50
2017,07,11,12,57,20.40
2017,07,11,12,58,20.40
2017,07,11,12,59,20.40
2017,07,11,13,00,20.40
2017,07,11,13,01,20.40
2017,07,11,13,02,20.40
2017,07,11,13,03,20.40
2017,07,11,13,04,20.40
2017,07,11,13,05,20.40
2017,07,11,13,06,20.40
2017,07,11,13,07,20.40
2017,07,11,13,08,20.40
2017,07,11,13,09,20.40
2017,07,11,13,10,20.40
2017,07,11,13,11,20.40
2017,07,11,13,12,20.40
2017,07,11,13,13,20.30
2017,07,11,13,14,20.30
2017,07,11,13,15,20.30
2017,07,11,13,16,20.40
2017,07,11,13,17,20.40
2017,07,11,13,18,20.40
2017,07,11,13,19,20.60
2017,07,11,13,20,20.60
2017,07,11,13,21,20.70
2017,07,11,13,22,20.70
2017,07,11,13,23,20.70
2017,07,11,13,24,20.70
2017,07,11,13,25,20.70
2017,07,11,13,26,20.80
2017,07,11,13,27,20.90
2017,07,11,13,28,20.90
2017,07,11,13,29,20.90
2017,07,11,13,30,20.90
2017,07,11,13,31,20.90
2017,07,11,13,32,20.80
2017,07,11,13,33,20.80
2017,07,11,13,34,20.80
2017,07,11,13,35,20.80
2017,07,11,13,36,20.80
2017,07,11,13,37,20.80
2017,07,11,13,38,20.80
2017,07,11,13,39,20.70
2017,07,11,13,40,20.70
2017,07,11,13,41,20.70
2017,07,11,13,42,20.80
2017,07,11,13,43,20.90
2017,07,11,13,44,20.90
2017,07,11,13,45,20.80
2017,07,11,13,46,20.80
2017,07,11,13,47,20.90
2017,07,11,13,48,20.90
2017,07,11,13,49,20.90
2017,07,11,13,50,20.90
2017,07,11,13,51,21.00
2017,07,11,13,52,21.00
2017,07,11,13,53,21.00
2017,07,11,13,54,21.00
2017,07,11,13,55,20.90
2017,07,11,13,56,20.90
2017,07,11,13,57,20.90
2017,07,11,13,58,20.90
2017,07,11,13,59,21.00
2017,07,11,14,00,21.10
2017,07,11,14,01,21.10
2017,07,11,14,02,21.20
2017,07,11,14,03,21.10
2017,07,11,14,04,21.10
2017,07,11,14,05,21.20
2017,07,11,14,06,21.20
2017,07,11,14,07,21.10
2017,07,11,14,08,21.10
2017,07,11,14,09,21.00
2017,07,11,14,10,21.00
2017,07,11,14,11,20.90
2017,07,11,14,12,20.90
2017,07,11,14,13,21.00
2017,07,11,14,14,21.10
2017,07,11,14,15,21.00
2017,07,11,14,16,21.00
2017,07,11,14,17,21.10
2017,07,11,14,18,21.10
2017,07,11,14,19,21.00
2017,07,11,14,20,21.00
2017,07,11,14,21,21.10
2017,07,11,14,22,21.20
2017,07,11,14,23,21.20
2017,07,11,14,24,21.20
2017,07,11,14,25,21.10
2017,07,11,14,26,21.10
2017,07,11,14,27,21.00
2017,07,11,14,28,21.00
2017,07,11,14,29,21.00
2017,07,11,14,30,21.00
2017,07,11,14,31,20.90
2017,07,11,14,32,20.90
2017,07,11,14,33,20.80
2017,07,11,14,34,20.80
2017,07,11,14,35,20.70
2017,07,11,14,36,20.60
2017,07,11,14,37,20.60
2017,07,11,14,38,20.70
2017,07,11,14,39,20.70
2017,07,11,14,40,20.70
2017,07,11,14,41,20.70
2017,07,11,14,42,20.70
2017,07,11,14,43,20.80
2017,07,11,14,44,20.80
2017,07,11,14,45,20.70
2017,07,11,14,46,20.70
2017,07,11,14,47,20.70
2017,07,11,14,48,20.60
2017,07,11,14,49,20.60
2017,07,11,14,50,20.60
2017,07,11,14,51,20.60
2017,07,11,14,52,20.60
2017,07,11,14,53,20.60
2017,07,11,14,54,20.70
2017,07,11,14,55,20.80
2017,07,11,14,56,20.80
2017,07,11,14,57,20.90
2017,07,11,14,58,20.90
2017,07,11,14,59,21.00
2017,07,11,15,00,21.00
2017,07,11,15,01,21.00
2017,07,11,15,02,21.10
2017,07,11,15,03,21.10
2017,07,11,15,04,21.10
2017,07,11,15,05,21.10
2017,07,11,15,06,21.10
2017,07,11,15,07,21.10
2017,07,11,15,08,21.10
2017,07,11,15,09,21.10
2017,07,11,15,10,21.10
2017,07,11,15,11,21.20
2017,07,11,15,12,21.20
2017,07,11,15,13,21.20
2017,07,11,15,14,21.20
2017,07,11,15,15,21.20
2017,07,11,15,16,21.30
2017,07,11,15,17,21.30
2017,07,11,15,18,21.40
2017,07,11,15,19,21.50
2017,07,11,15,20,21.60
2017,07,11,15,21,21.60
2017,07,11,15,22,21.50
2017,07,11,15,23,21.60
2017,07,11,15,24,21.60
2017,07,11,15,25,21.60
2017,07,11,15,26,21.70
2017,07,11,15,27,21.70
2017,07,11,15,28,21.70
2017,07,11,15,29,21.60
2017,07,11,15,30,21.60
2017,07,11,15,31,21.60
2017,07,11,15,32,21.60
2017,07,11,15,33,21.70
2017,07,11,15,34,21.60
2017,07,11,15,35,21.60
2017,07,11,15,36,21.60
2017,07,11,15,37,21.60
2017,07,11,15,38,21.70
2017,07,11,15,39,21.70
2017,07,11,15,40,21.80
2017,07,11,15,41,21.90
2017,07,11,15,42,21.90
2017,07,11,15,43,21.90
2017,07,11,15,44,22.00
2017,07,11,15,45,22.10
2017,07,11,15,46,22.10
2017,07,11,15,47,22.10
2017,07,11,15,48,22.10
2017,07,11,15,49,22.10
2017,07,11,15,50,22.10
2017,07,11,15,51,22.10
2017,07,11,15,52,22.10
2017,07,11,15,53,22.10
2017,07,11,15,54,22.10
2017,07,11,15,55,22.10
2017,07,11,15,56,22.10
2017,07,11,15,57,22.10
2017,07,11,15,58,22.20
2017,07,11,15,59,22.20
2017,07,11,16,00,22.20
2017,07,11,16,01,22.20
2017,07,11,16,02,22.20
2017,07,11,16,03,22.20
2017,07,11,16,04,22.20
2017,07,11,16,05,22.20
2017,07,11,16,06,22.20
2017,07,11,16,07,22.10
2017,07,11,16,08,22.10
2017,07,11,16,09,22.10
2017,07,11,16,10,22.10
2017,07,11,16,11,22.10
2017,07,11,16,12,22.10
2017,07,11,16,13,22.10
2017,07,11,16,14,22.10
2017,07,11,16,15,22.10
2017,07,11,16,16,22.10
2017,07,11,16,17,22.20
2017,07,11,16,18,22.20
2017,07,11,16,19,22.20
2017,07,11,16,20,22.30
2017,07,11,16,21,22.20
2017,07,11,16,22,22.20
2017,07,11,16,23,22.20
2017,07,11,16,24,22.20
2017,07,11,16,25,22.20
2017,07,11,16,26,22.20
2017,07,11,16,27,22.20
2017,07,11,16,28,22.30
2017,07,11,16,29,22.30
2017,07,11,16,30,22.30
2017,07,11,16,31,22.30
2017,07,11,16,32,22.30
2017,07,11,16,33,22.40
2017,07,11,16,34,22.50
2017,07,11,16,35,22.50
2017,07,11,16,36,22.60
2017,07,11,16,37,22.60
2017,07,11,16,38,22.70
2017,07,11,16,39,22.70
2017,07,11,16,40,22.70
2017,07,11,16,41,22.70
2017,07,11,16,42,22.70
2017,07,11,16,43,22.70
2017,07,11,16,44,22.60
2017,07,11,16,45,22.60
2017,07,11,16,46,22.60
2017,07,11,16,47,22.70
2017,07,11,16,48,22.70
2017,07,11,16,49,22.70
2017,07,11,16,50,22.70
2017,07,11,16,51,22.60
2017,07,11,16,52,22.60
2017,07,11,16,53,22.60
2017,07,11,16,54,22.60
2017,07,11,16,55,22.60
2017,07,11,16,56,22.60
2017,07,11,16,57,22.60
2017,07,11,16,58,22.60
2017,07,11,16,59,22.60
2017,07,11,17,00,22.50
2017,07,11,17,01,22.50
2017,07,11,17,02,22.40
2017,07,11,17,03,22.40
2017,07,11,17,04,22.50
2017,07,11,17,05,22.50
2017,07,11,17,06,22.50
2017,07,11,17,07,22.50
2017,07,11,17,08,22.60
2017,07,11,17,09,22.60
2017,07,11,17,10,22.60
2017,07,11,17,11,22.50
2017,07,11,17,12,22.50
2017,07,11,17,13,22.60
2017,07,11,17,14,22.50
2017,07,11,17,15,22.50
2017,07,11,17,16,22.60
2017,07,11,17,17,22.60
2017,07,11,17,18,22.60
2017,07,11,17,19,22.60